Location: Oberwangen
(47.4286°N, 8.9679°E)
Time: 22:00:40
(UTC+00:00)

SL-8 R/B - Pass Details

Date: 20 June 2021
Orbit: 656 x 667 km, 48.4° (Epoch: 23 July)

Event Time Altitude Azimuth Distance (km) Brightness Sun altitude
Rises 20:10:35 0° 287° (WNW) 2,996 8.3 -6.6°
Reaches altitude 10° 20:12:58 10° 282° (WNW) 2,080 7.2 -6.9°
Maximum altitude 20:17:38 54° 206° (SSW) 805 4.0 -7.5°
Drops below altitude 10° 20:22:17 10° 130° (SE) 2,066 5.6 -8.0°
Enters shadow 20:22:20 10° 130° (SE) 2,082 5.6 -8.0°
